Regional Weather Roundup
Issued by NWS

Home | Current Version | Previous Version | Graphics & Text | Print | Product List | Glossary Off
Versions: 1 2 3 4 5 6 7 8 9 10 11 12 13 14 15 16 17 18 19 20 21 22 23 24 25 26 27 28 29 30 31 32 33 34 35 36 37 38 39 40 41 42 43 44 45 46 47 48 49 50

507
ASUS43 KTOP 070759
RWRKS

WEATHER ROUNDUP FOR KANSAS
NATIONAL WEATHER SERVICE GOODLAND KS
200 AM CST SUN FEB 07 2016

NOTE:  "FAIR" INDICATES FEW OR NO CLOUDS BELOW 12,000 FEET WITH NO
SIGNIFICANT WEATHER AND/OR OBSTRUCTIONS TO VISIBILITY.

KSZ001>006-013>018-027>032-041>047-070900-
NORTHWEST KANSAS

CITY           SKY/WX    TMP DP  RH WIND       PRES   REMARKS
GOODLAND       CLOUDY    30  23  75 NW9       30.12S
HAYS           CLOUDY    34  19  55 NW8       30.07S
HILL CITY      CLOUDY    39  28  64 NW10      30.09R WCI  32
RUSSELL        CLOUDY    37  27  67 W10       30.05S WCI  30
$$

KSZ061>065-074>080-084>089-070900-
SOUTHWEST KANSAS

CITY           SKY/WX    TMP DP  RH WIND       PRES   REMARKS
DODGE CITY     CLOUDY    36  15  42 W18       30.07S WCI  26
ELKHART          N/A     34  12  40 W10         N/A  WCI  26
GARDEN CITY    CLOUDY    33  19  56 NW15      30.10R WCI  23
GREAT BEND     CLOUDY    34  19  55 NW9       30.08R
LIBERAL        CLOUDY    34  16  47 W12       30.08F WCI  25
$$

KSZ066>073-081>083-090>101-070900-
SOUTHEAST KANSAS

CITY           SKY/WX    TMP DP  RH WIND       PRES   REMARKS
CHANUTE        CLEAR     35  28  75 S12       30.12F WCI  27
COFFEYVILLE    PTCLDY    36  27  69 S6        30.17F
HUTCHINSON     CLOUDY    35  21  56 S8        30.06F
MEDICINE LODGE   N/A     31  21  66 S5        30.09F
NEWTON         CLEAR     37  23  56 SW17      30.06F WCI  28
PARSONS        PTCLDY    35  27  72 S5        30.16F
WICHITA INTL   PTCLDY    35  25  66 S10       30.09F WCI  27
WICHITA JABRA  CLEAR     37  25  61 SW13      30.08F WCI  29
WINFIELD       CLEAR     34  26  72 S7        30.14F
$$

KSZ007>012-019>026-033>040-048>060-102>105-070900-
NORTHEAST KANSAS

CITY           SKY/WX    TMP DP  RH WIND       PRES   REMARKS
CONCORDIA      CLOUDY    37  26  64 W12       30.00F WCI  29
EMPORIA        CLEAR     41  25  53 SW22G33   30.03F
LAWRENCE       PTCLDY    39  26  59 SW15G24   30.03F WCI  31
MANHATTAN      CLOUDY    40  26  57 W10G22    30.01S WCI  33
OLATHE IND     CLEAR     38  27  64 S20       30.06F WCI  28
OLATHE EXE     CLEAR     36  26  67 SW9       30.05F
SALINA         CLOUDY    40  21  46 SW14      30.05R WCI  32
TOPEKA BILLARD PTCLDY    41  25  53 SW12G20   30.02F
TOPEKA FORBES  CLOUDY    37  26  64 S15       30.01F WCI  28
$$




USA.gov is the U.S. government's official web portal to all federal, state and local government web resources and services.